H1 CPF  2  DGF 2024 01 15 08 015 01 etalon1    NONE      
H2  8900103  525    19751 2024 01 15 00 00 00 2024 01 22 00 00 00   120 1 1  0 0 0 1
H5  0.5673
H9
10 0 60327  57600.000000  0      -8101672.468      23982400.007       3522484.388
10 0 60327  57720.000000  0      -8067382.499      23928645.547       3944230.953
10 0 60327  57840.000000  0      -8031938.483      23867885.603       4364621.135
10 0 60327  57960.000000  0      -7995472.645      23800117.739       4783510.431
10 0 60327  58080.000000  0      -7958117.480      23725343.689       5200754.862
10 0 60327  58200.000000  0      -7920005.650      23643569.363       5616211.023
10 0 60327  58320.000000  0      -7881269.872      23554804.846       6029736.135
10 0 60327  58440.000000  0      -7842042.809      23459064.392       6441188.086
10 0 60327  58560.000000  0      -7802456.963      23356366.422       6850425.485
10 0 60327  58680.000000  0      -7762644.569      23246733.512       7257307.705
10 0 60327  58800.000000  0      -7722737.481      23130192.386       7661694.934
10 0 60327  58920.000000  0      -7682867.071      23006773.894       8063448.222
10 0 60327  59040.000000  0      -7643164.118      22876513.002       8462429.525
10 0 60327  59160.000000  0      -7603758.702      22739448.766       8858501.751
10 0 60327  59280.000000  0      -7564780.098      22595624.309       9251528.812
10 0 60327  59400.000000  0      -7526356.671      22445086.797       9641375.664
10 0 60327  59520.000000  0      -7488615.771      22287887.409      10027908.354
10 0 60327  59640.000000  0      -7451683.630      22124081.303      10410994.066
10 0 60327  59760.000000  0      -7415685.257      21953727.581      10790501.165
10 0 60327  59880.000000  0      -7380744.338      21776889.254      11166299.242
10 0 60327  60000.000000  0      -7346983.132      21593633.198      11538259.156
10 0 60327  60120.000000  0      -7314522.375      21404030.114      11906253.080
10 0 60327  60240.000000  0      -7283481.181      21208154.479      12270154.542
10 0 60327  60360.000000  0      -7253976.940      21006084.497      12629838.470
10 0 60327  60480.000000  0      -7226125.227      20797902.050      12985181.231
10 0 60327  60600.000000  0      -7200039.704      20583692.643      13336060.675
10 0 60327  60720.000000  0      -7175832.030      20363545.346      13682356.174
10 0 60327  60840.000000  0      -7153611.766      20137552.737      14023948.667
10 0 60327  60960.000000  0      -7133486.286      19905810.838      14360720.694
10 0 60327  61080.000000  0      -7115560.691      19668419.052      14692556.440
10 0 60327  61200.000000  0      -7099937.718      19425480.098      15019341.774
10 0 60327  61320.000000  0      -7086717.659      19177099.939      15340964.284
10 0 60327  61440.000000  0      -7075998.275      18923387.712      15657313.319
10 0 60327  61560.000000  0      -7067874.720      18664455.657      15968280.025
10 0 60327  61680.000000  0      -7062439.453      18400419.037      16273757.380
10 0 60327  61800.000000  0      -7059782.172      18131396.064      16573640.232
10 0 60327  61920.000000  0      -7059989.729      17857507.816      16867825.336
10 0 60327  62040.000000  0      -7063146.064      17578878.158      17156211.386
10 0 60327  62160.000000  0      -7069332.133      17295633.657      17438699.051
10 0 60327  62280.000000  0      -7078625.837      17007903.494      17715191.007
10 0 60327  62400.000000  0      -7091101.960      16715819.379      17985591.972
10 0 60327  62520.000000  0      -7106832.102      16419515.462      18249808.740
10 0 60327  62640.000000  0      -7125884.619      16119128.239      18507750.207
10 0 60327  62760.000000  0      -7148324.567      15814796.460      18759327.407
10 0 60327  62880.000000  0      -7174213.641      15506661.038      19004453.542
10 0 60327  63000.000000  0      -7203610.125      15194864.947      19243044.009
10 0 60327  63120.000000  0      -7236568.840      14879553.129      19475016.429
10 0 60327  63240.000000  0      -7273141.095      14560872.394      19700290.681
10 0 60327  63360.000000  0      -7313374.641      14238971.320      19918788.919
10 0 60327  63480.000000  0      -7357313.630      13914000.151      20130435.610
10 0 60327  63600.000000  0      -7404998.571      13586110.695      20335157.552
10 0 60327  63720.000000  0      -7456466.296      13255456.220      20532883.903
10 0 60327  63840.000000  0      -7511749.925      12922191.348      20723546.204
10 0 60327  63960.000000  0      -7570878.830      12586471.954      20907078.402
10 0 60327  64080.000000  0      -7633878.611      12248455.052      21083416.875
10 0 60327  64200.000000  0      -7700771.066      11908298.694      21252500.454
10 0 60327  64320.000000  0      -7771574.171      11566161.862      21414270.442
10 0 60327  64440.000000  0      -7846302.054      11222204.354      21568670.637
10 0 60327  64560.000000  0      -7924964.986      10876586.678      21715647.348
10 0 60327  64680.000000  0      -8007569.358      10529469.944      21855149.421
10 0 60327  64800.000000  0      -8094117.673      10181015.750      21987128.248
10 0 60327  64920.000000  0      -8184608.538       9831386.076      22111537.791
10 0 60327  65040.000000  0      -8279036.658       9480743.169      22228334.596
10 0 60327  65160.000000  0      -8377392.831       9129249.434      22337477.809
10 0 60327  65280.000000  0      -8479663.950       8777067.324      22438929.188
10 0 60327  65400.000000  0      -8585833.008       8424359.226      22532653.123
10 0 60327  65520.000000  0      -8695879.100       8071287.355      22618616.643
10 0 60327  65640.000000  0      -8809777.435       7718013.637      22696789.429
10 0 60327  65760.000000  0      -8927499.347       7364699.604      22767143.829
10 0 60327  65880.000000  0      -9049012.312       7011506.282      22829654.864
10 0 60327  66000.000000  0      -9174279.964       6658594.079      22884300.242
10 0 60327  66120.000000  0      -9303262.114       6306122.678      22931060.359
10 0 60327  66240.000000  0      -9435914.781       5954250.927      22969918.318
10 0 60327  66360.000000  0      -9572190.211       5603136.734      23000859.923
10 0 60327  66480.000000  0      -9712036.912       5252936.953      23023873.697
10 0 60327  66600.000000  0      -9855399.682       4903807.286      23038950.878
10 0 60327  66720.000000  0     -10002219.651       4555902.167      23046085.426
10 0 60327  66840.000000  0     -10152434.312       4209374.668      23045274.030
10 0 60327  66960.000000  0     -10305977.569       3864376.387      23036516.105
10 0 60327  67080.000000  0     -10462779.774       3521057.348      23019813.794
10 0 60327  67200.000000  0     -10622767.779       3179565.900      22995171.973
10 0 60327  67320.000000  0     -10785864.983       2840048.616      22962598.244
10 0 60327  67440.000000  0     -10951991.386       2502650.195      22922102.939
10 0 60327  67560.000000  0     -11121063.641       2167513.363      22873699.117
10 0 60327  67680.000000  0     -11292995.113       1834778.777      22817402.556
10 0 60327  67800.000000  0     -11467695.937       1504584.930      22753231.757
10 0 60327  67920.000000  0     -11645073.084       1177068.062      22681207.930
10 0 60327  68040.000000  0     -11825030.423        852362.062      22601354.996
10 0 60327  68160.000000  0     -12007468.790        530598.384      22513699.575
10 0 60327  68280.000000  0     -12192286.054        211905.955      22418270.979
10 0 60327  68400.000000  0     -12379377.196       -103588.907      22315101.206
10 0 60327  68520.000000  0     -12568634.375       -415762.580      22204224.928
10 0 60327  68640.000000  0     -12759947.013       -724494.218      22085679.481
10 0 60327  68760.000000  0     -12953201.867      -1029665.833      21959504.852
10 0 60327  68880.000000  0     -13148283.112      -1331162.371      21825743.669
10 0 60327  69000.000000  0     -13345072.428      -1628871.787      21684441.189
10 0 60327  69120.000000  0     -13543449.077      -1922685.121      21535645.279
10 0 60327  69240.000000  0     -13743289.998      -2212496.568      21379406.405
10 0 60327  69360.000000  0     -13944469.890      -2498203.547      21215777.613
10 0 60327  69480.000000  0     -14146861.306      -2779706.764      21044814.516
10 0 60327  69600.000000  0     -14350334.744      -3056910.282      20866575.272
10 0 60327  69720.000000  0     -14554758.742      -3329721.578      20681120.568
10 0 60327  69840.000000  0     -14759999.971      -3598051.602      20488513.599
10 0 60327  69960.000000  0     -14965923.335      -3861814.838      20288820.050
10 0 60327  70080.000000  0     -15172392.072      -4120929.350      20082108.070
10 0 60327  70200.000000  0     -15379267.846      -4375316.839      19868448.255
10 0 60327  70320.000000  0     -15586410.857      -4624902.690      19647913.621
10 0 60327  70440.000000  0     -15793679.939      -4869616.017      19420579.584
10 0 60327  70560.000000  0     -16000932.665      -5109389.705      19186523.930
10 0 60327  70680.000000  0     -16208025.454      -5344160.451      18945826.794
10 0 60327  70800.000000  0     -16414813.672      -5573868.800      18698570.630
10 0 60327  70920.000000  0     -16621151.744      -5798459.184      18444840.189
10 0 60327  71040.000000  0     -16826893.261      -6017879.945      18184722.482
10 0 60327  71160.000000  0     -17031891.085      -6232083.370      17918306.761
10 0 60327  71280.000000  0     -17235997.463      -6441025.714      17645684.483
10 0 60327  71400.000000  0     -17439064.134      -6644667.224      17366949.279
10 0 60327  71520.000000  0     -17640942.441      -6842972.157      17082196.928
10 0 60327  71640.000000  0     -17841483.440      -7035908.795      16791525.319
10 0 60327  71760.000000  0     -18040538.016      -7223449.465      16495034.421
10 0 60327  71880.000000  0     -18237956.988      -7405570.540      16192826.249
99